Forum


Ask a question

No. FLOSS Question Date
Views
Answers
1 OpenFOAM charger making sparking like noise 2015-08-31 13:33:10.000000 1740 1
2 OpenFOAM Simulation error (delta T is decreasing while the iterations are being carried out) 2016-03-12 19:12:05.000000 6938 5
3 OpenFOAM Error in Turbulence Solver 2016-03-18 18:16:37.000000 7657 6
4 OpenFOAM How to plot a graph in Open foam 2016-04-24 17:18:48.000000 2718 1
5 OpenFOAM OPENFOAM IN WINDOWS 2016-05-10 08:35:05.000000 2081 1
6 OpenFOAM Simulation of Euler-lagrangian bubble using OpenFOAM 2016-05-11 12:28:45.000000 2413 2
7 OpenFOAM TROUBLE IN SIMULATION 2016-05-15 04:19:14.000000 1973 2
8 OpenFOAM object inspector menu in paraview 2016-05-25 10:04:12.000000 1941 1
9 OpenFOAM Writing blockMeshDict file 2016-06-14 04:06:00.000000 1723 1
10 OpenFOAM blockmeshdict file 2016-06-23 05:50:12.000000 1698 1
11 OpenFOAM PROBLEM 2016-07-21 04:44:36.000000 1674 1
12 OpenFOAM opemFoam 2016-08-02 10:02:33.000000 1661 2
13 OpenFOAM co-efficient of drag and lift 2016-08-03 10:15:57.000000 1725 4
14 OpenFOAM plotting in paraview 2016-08-16 09:47:55.000000 1504 2
15 OpenFOAM plotting the residuals 2016-08-23 14:45:56.000000 2802 1
16 OpenFOAM boundary condition 2016-09-26 17:04:35.000000 1462 1
17 OpenFOAM SurfaceTracking 2016-10-06 12:32:53.000000 1577 1
18 OpenFOAM error while running a solver 2016-10-13 18:09:34.000000 6890 1
19 OpenFOAM paraview tools 2016-10-21 05:07:48.000000 1610 1
20 OpenFOAM No vortex shedding 2016-10-31 05:55:03.000000 1561 1
21 OpenFOAM openfoam to firefoam throuh paraview? 2016-11-01 15:07:10.000000 2091 3
22 OpenFOAM problem in results 2016-11-21 07:10:46.000000 1511 2
23 OpenFOAM post-processing problem 2016-11-23 13:36:35.000000 1780 1
24 OpenFOAM Basic queries regarding cad, mesh and sim 2017-01-16 08:39:10.000000 1484 2
25 OpenFOAM multiPhaseEulerFoam case running issue.. 2017-01-17 17:47:23.000000 1902 1
26 OpenFOAM How to find/call each individual cell in a computational domain 2017-03-08 13:50:24.000000 3482 3
27 OpenFOAM post-processing in paraview 2017-03-10 11:24:48.000000 1892 1
28 OpenFOAM pressure plot in paraFoam 2017-03-27 01:22:03.000000 2603 1
29 OpenFOAM SnappyHexMesh Tutorial 2017-04-01 06:01:29.000000 1955 1
30 OpenFOAM laminar separation bubble 2017-04-02 08:04:30.000000 1370 1
31 OpenFOAM plotting skin friction coefficient 2017-04-03 04:28:55.000000 2972 1
32 OpenFOAM getting time-average flow fields within certain time interval 2017-04-09 06:48:05.000000 2255 1
33 OpenFOAM plotting at a definite point 2017-04-14 14:01:59.000000 1541 1
34 OpenFOAM Cannot find flow at bottom surface_slump test 2017-04-25 11:17:15.000000 1482 4
35 OpenFOAM How to create a internal gate? 2017-04-25 11:30:22.000000 1800 1
36 OpenFOAM How to Create Baffles in Geometry 2017-05-17 10:17:39.000000 3524 1
37 OpenFOAM Dynamic Moving Mesh 2017-05-20 12:08:53.000000 1418 1
38 OpenFOAM OpenFOAM-1.6.x Installation Error 2017-06-07 10:18:39.000000 1468 1
39 OpenFOAM Simulation Of Flow over cylinder with forward splitter plate 2017-07-03 15:49:32.000000 1406 1
40 OpenFOAM Convergence while using icoFoam 2017-07-06 09:39:26.000000 1578 1
41 OpenFOAM vertical loading in interfoam 2017-07-11 15:10:27.000000 1405 1
42 OpenFOAM OpenFOAM Issue with Porous Media and Buoyancy 2017-08-02 07:11:23.000000 8491 1
43 OpenFOAM change of volume inside pipe 2017-08-11 11:55:39.000000 1455 3
44 OpenFOAM diffusivity directional variables 2017-08-30 12:50:18.000000 1541 1
45 OpenFOAM Resource persons for OPENFOAM Software. 2017-11-22 09:29:39.000000 1340 1
46 OpenFOAM Looking for Solver for Three Phase Heat Transfer with phase change for Cryogenic System 2017-11-29 05:15:20.000000 1418 1
47 OpenFOAM Why Initial residual is not equal to the final residual obtained from the previous iteration in case of fvDOM radiation solver? 2018-03-07 06:08:09.000000 1720 1
48 OpenFOAM Using multiInteraction type patchInteractionModel 2018-05-16 06:46:43.000000 1364 1
49 OpenFOAM Salome bentpipe to OpenFOAM 2018-07-01 21:39:30.000000 1268 1
50 OpenFOAM Convergence in Open Foam Simulation 2018-07-13 13:10:12.000000 1229 1
51 OpenFOAM Continuity error cannot be removed by adjusting the outflow. 2018-09-19 07:52:53.000000 3179 1
52 OpenFOAM Foam::error::printStack(Foam::Ostream&) at ??:? 2018-09-27 06:00:30.000000 3598 2
53 OpenFOAM Boundary condition at inlet 2018-11-10 18:46:57.000000 1327 2
54 OpenFOAM Heat flux boundary condition in OpenFOAM 2018-12-14 19:44:13.938906 2773 1
55 OpenFOAM Query regarding heat flux boundary condition in OpenFOAM 2018-12-16 12:40:09.657563 1102 1
56 OpenFOAM Regarding Proposal 2018-12-17 05:59:28.228096 1111 1
57 OpenFOAM Choosing exact boundary conditions 2018-12-18 04:31:26.729700 1343 1
58 OpenFOAM No creation of processed files even after running. 2019-02-06 15:56:59.781942 1068 1
59 OpenFOAM Inlet Velocity 2019-06-28 12:53:09.638190 1080 4
60 OpenFOAM Multiple AMI, decreasing time step. 2019-07-15 09:42:15.003499 1106 1
61 OpenFOAM Choosing appropriate boundary conditions for turbulent quantities 2019-08-13 01:54:04.383335 979 1
62 OpenFOAM Help me choose MFEM vs deal_ii 2019-08-29 07:35:13.851320 999 2
63 OpenFOAM Error: Pcorr goes to nan. (Diverging) 2019-09-12 16:37:05.219232 976 3
64 OpenFOAM Where to add new field while using dsmcfoam? 2019-11-22 04:17:40.010364 1160 3
65 OpenFOAM Convergence problem in steady state simulation of centrifugal fan in openfoam 2019-11-22 07:55:27.815884 1643 1
66 OpenFOAM Mesh generation using blockMesh utility 2020-03-02 11:13:02.251839 1048 10
67 OpenFOAM PostProcess for OpenFOAM1606+ 2020-06-16 12:37:39.980929 780 1
68 OpenFOAM How to update supply temperature on boundary based on the measured temperature on another boundary patch in OpenFOAM? 2020-07-03 13:26:43.962960 778 1
69 OpenFOAM Regarding error in new expression syntax in openfoam 1912 2020-07-15 16:04:36.767775 745 1
70 OpenFOAM Large eddy simulation 2020-08-12 05:34:28.148779 769 1
71 OpenFOAM Problem before Instaling OPENFOAM 2020-09-19 12:46:45.788734 670 2
72 OpenFOAM Non-Dimensional Contour Plots 2020-10-23 14:01:06.296716 574 3
73 OpenFOAM AMR to capture shocks 2020-10-24 13:20:43.707589 629 3
74 OpenFOAM Types of dynamic mesh motion solver for pitching airfoil 2020-10-28 15:58:19.216544 784 1
75 OpenFOAM Radial Basis Function (RBF) mesh motion solver for pitching motion 2020-10-28 17:35:49.862215 673 2
76 OpenFOAM Difference between foam and algorithm in openfoam 2020-10-29 07:48:12.297067 579 1
77 OpenFOAM How to create ZeroThicknessWall in SnappyHexMesh? Also Can I use toposet (or splitmesh) to create zone for adding momentum source in buoyantBoussinesqFoams? 2020-10-29 12:43:31.890430 749 4
78 OpenFOAM 2d pressure swirl atomizer using vof 2020-11-03 17:37:17.735673 792 10
79 OpenFOAM Obtaining csv data from xy plot in Paraview 2020-11-05 13:06:17.962619 610 1
80 OpenFOAM Decreasing the value of y+ 2020-11-29 11:34:07.125783 540 1
81 OpenFOAM Openfoam cannot find a single face in the mesh which uses vertices 2020-12-02 16:42:03.926873 598 1
82 OpenFOAM MPI parallel run issue for RBF motion solver in foam extend 4.0 2020-12-09 08:56:18.424466 520 2
83 OpenFOAM Incorrect lift co-efficients with buoyantBoussinesqPimpleFoam 2020-12-28 07:14:52.246656 538 5
84 OpenFOAM Faulty mobile download application? 2021-01-09 07:12:14.335900 38 3
85 OpenFOAM Wing Motion - Dynamic Mesh using pimpleFoam 2021-01-27 05:08:21.835917 535 9
86 OpenFOAM Which Company Provide Best landing page designing services In delhi? 2021-02-05 10:18:28.414243 113 0
87 OpenFOAM Power Law boundary inlet velocity condition 2021-02-06 08:52:36.277770 471 1
88 OpenFOAM Value of diffusion coefficient in scalar transport foam 2021-02-18 05:06:23.346334 427 2
89 OpenFOAM boundary conditions 2021-02-27 11:09:12.451700 435 3
90 OpenFOAM how i can add the scale function in open foam 2021-03-03 14:40:11.622886 393 3
91 OpenFOAM Let the accounting assignment help to finish your assignments on time 2021-03-13 08:46:19.380646 80 4
92 OpenFOAM Regarding this error 2021-04-07 03:47:18.194977 358 8
93 OpenFOAM How to put pressure when using cyclic boundary condition 2021-04-24 07:59:56.793707 321 3
94 OpenFOAM gcc: error: unrecognized command line option ‘--showme:link’ 2021-04-27 11:00:44.095505 496 1
95 OpenFOAM Swirl Atomization 2021-05-04 01:44:43.296444 285 1
96 OpenFOAM How can I convert a steady state solver to a transient state solver? (time-dependent) 2021-05-13 07:22:42.035917 291 4
97 OpenFOAM Time control settings for a periodic bulk forcing 2021-05-20 12:52:08.114050 329 5
98 OpenFOAM Digital marketing company in Bangalore 2021-05-24 09:24:33.749760 8 0
99 OpenFOAM best b school in bangalore? 2021-05-24 12:17:39.900456 7 0
100 OpenFOAM best salon for keratin treatment in bangalore 2021-05-24 14:41:02.226655 7 0
101 OpenFOAM Regarding mappedpatch inlet for wallboiling tutorial from reactingTwoPhaseEulerFoam 2021-06-23 16:32:14.074059 234 4
102 OpenFOAM what does fvc::interpolate(rho) actually do in interFoam? 2021-06-30 18:56:26.123988 201 1
103 OpenFOAM Simulating an Aerofoil 2021-07-01 15:07:29.249138 207 1
104 OpenFOAM how to construct another phi in interFoam? 2021-07-02 20:26:21.204588 206 1
105 OpenFOAM Mass Flow Rate Calculation coding 2021-07-04 16:25:26.137351 229 2
106 OpenFOAM Regarding Error in opefoam 2021-07-18 02:07:08.803247 190 9
107 OpenFOAM error in openfoam 2021-07-23 03:34:57.837153 202 6
108 OpenFOAM How to write a udf in openfoam 2021-07-26 09:55:06.430047 204 2
109 OpenFOAM How to find internal field 2021-07-27 09:40:03.930213 190 4
110 OpenFOAM Regarding Time Dependent BC 2021-08-12 04:59:54.375943 145 3
111 OpenFOAM Calculate water depth in openfoam 2021-08-17 04:21:42.156495 147 2
112 OpenFOAM large eddy simulation filtering 2021-08-31 06:56:12.406990 112 1
113 OpenFOAM how can we average our data over any time interval, after the simulation is finished? 2021-09-02 11:36:00.163268 111 3
114 OpenFOAM dsmcFoam + cht solver combination possible? 2021-09-05 17:57:38.204638 93 1
115 OpenFOAM getting cell dimensions 2021-09-14 10:56:37.767673 86 1
116 OpenFOAM Negative Initial temperature error in openfoam 2021-09-16 07:12:55.220368 150 13
117 OpenFOAM Regarding problem in residual plot 2021-09-17 01:56:49.020450 85 3
118 OpenFOAM Is there a way to run windows software on Chromebook? 2021-10-06 09:48:33.356098 28 0
119 OpenFOAM Excel Tasks Help 2021-10-11 11:17:26.751381 22 0
120 OpenFOAM Permission denied for accessing any file/folder from the main directory(run directory) which was pasted in the run folder. 2021-10-19 11:02:24.252428 6 0